Torna al catalogo

LEO 1

AttivoComunicazioniPO
NORAD 43113·PAYLOAD·🇺🇸 United States

Lanciato Jan 12, 2018 da Satish Dhawan Space Centre

Loading…

Prossimi Passaggi (prossime 24 ore)

TLE

AggiornatoSource: Space-Track

Epoca: Sep 14, 2026, 12:47 UTC

1 43113U 18004C   26257.53328226  .00001600  00000-0  11489-3 0  9991
2 43113  99.2411 187.5241 0348735 164.9178 196.2749 14.68268711450599

Traccia LEO 1 in tempo reale con AllMySat

Download on the App Store